Time,TemperatureF,DewpointF,PressureIn,WindDirection,WindDirectionDegrees,WindSpeedMPH,WindSpeedGustMPH,Humidity,HourlyPrecipIn,Conditions,Clouds,dailyrainin,SolarRadiationWatts/m^2,SoftwareType,DateUTC
2013-01-17 00:11:00,44.5,37.0,30.24,NE,35,0.0,2.0,76,0.00,,,0.00,0,weatherlink.com 1.10,2013-01-17 08:11:00,
2013-01-17 00:26:00,45.2,38.0,30.24,NE,35,1.0,1.0,77,0.00,,,0.00,0,weatherlink.com 1.10,2013-01-17 08:26:00,
2013-01-17 00:41:00,44.8,38.0,30.24,NE,35,2.0,2.0,77,0.00,,,0.00,0,weatherlink.com 1.10,2013-01-17 08:41:00,
2013-01-17 00:56:00,44.6,37.0,30.24,NE,35,0.0,1.0,75,0.00,,,0.00,0,weatherlink.com 1.10,2013-01-17 08:56:00,
2013-01-17 01:11:00,44.3,37.0,30.24,NE,35,0.0,1.0,75,0.00,,,0.00,0,weatherlink.com 1.10,2013-01-17 09:11:00,
2013-01-17 01:26:00,44.2,36.0,30.24,NE,35,1.0,3.0,74,0.00,,,0.00,0,weatherlink.com 1.10,2013-01-17 09:26:00,
2013-01-17 01:41:00,44.1,37.0,30.23,NE,35,0.0,1.0,75,0.00,,,0.00,0,weatherlink.com 1.10,2013-01-17 09:41:00,
2013-01-17 01:56:00,44.2,37.0,30.23,NE,35,0.0,0.0,76,0.00,,,0.00,0,weatherlink.com 1.10,2013-01-17 09:56:00,
2013-01-17 02:11:00,44.4,36.0,30.23,NE,35,0.0,1.0,72,0.00,,,0.00,0,weatherlink.com 1.10,2013-01-17 10:11:00,
2013-01-17 02:26:00,44.5,36.0,30.22,NE,35,0.0,2.0,71,0.00,,,0.00,0,weatherlink.com 1.10,2013-01-17 10:26:00,
2013-01-17 02:41:00,44.9,36.0,30.22,NE,35,0.0,1.0,71,0.00,,,0.00,0,weatherlink.com 1.10,2013-01-17 10:41:00,
2013-01-17 02:56:00,44.7,37.0,30.21,NE,35,2.0,3.0,73,0.00,,,0.00,0,weatherlink.com 1.10,2013-01-17 10:56:00,
2013-01-17 03:26:00,44.9,36.0,30.20,NE,35,0.0,1.0,70,0.00,,,0.00,0,weatherlink.com 1.10,2013-01-17 11:26:00,
2013-01-17 03:41:00,45.5,35.0,30.20,NE,35,0.0,0.0,66,0.00,,,0.00,0,weatherlink.com 1.10,2013-01-17 11:41:00,
2013-01-17 03:56:00,45.8,35.0,30.20,NE,35,0.0,1.0,66,0.00,,,0.00,0,weatherlink.com 1.10,2013-01-17 11:56:00,
2013-01-17 04:11:00,45.8,35.0,30.19,NE,35,0.0,0.0,67,0.00,,,0.00,0,weatherlink.com 1.10,2013-01-17 12:11:00,
2013-01-17 04:26:00,45.6,36.0,30.18,NE,35,0.0,0.0,68,0.00,,,0.00,0,weatherlink.com 1.10,2013-01-17 12:26:00,
2013-01-17 04:41:00,45.3,35.0,30.18,NE,35,0.0,2.0,67,0.00,,,0.00,0,weatherlink.com 1.10,2013-01-17 12:41:00,
2013-01-17 04:56:00,45.0,35.0,30.18,NE,35,0.0,2.0,67,0.00,,,0.00,0,weatherlink.com 1.10,2013-01-17 12:56:00,
2013-01-17 05:11:00,44.8,35.0,30.17,NE,35,0.0,1.0,68,0.00,,,0.00,0,weatherlink.com 1.10,2013-01-17 13:11:00,
2013-01-17 05:26:00,44.6,35.0,30.17,NE,35,0.0,1.0,69,0.00,,,0.00,0,weatherlink.com 1.10,2013-01-17 13:26:00,
2013-01-17 05:41:00,44.8,34.0,30.17,NE,35,0.0,2.0,66,0.00,,,0.00,0,weatherlink.com 1.10,2013-01-17 13:41:00,
2013-01-17 05:56:00,45.5,36.0,30.17,NE,35,0.0,1.0,70,0.00,,,0.00,0,weatherlink.com 1.10,2013-01-17 13:56:00,
2013-01-17 06:11:00,45.4,35.0,30.18,NE,35,0.0,3.0,67,0.00,,,0.00,0,weatherlink.com 1.10,2013-01-17 14:11:00,
2013-01-17 06:26:00,44.7,35.0,30.18,NE,35,1.0,3.0,69,0.00,,,0.00,0,weatherlink.com 1.10,2013-01-17 14:26:00,
2013-01-17 06:41:00,44.1,36.0,30.18,NE,35,0.0,1.0,72,0.00,,,0.00,0,weatherlink.com 1.10,2013-01-17 14:41:00,
2013-01-17 06:56:00,43.9,36.0,30.18,NE,35,0.0,3.0,73,0.00,,,0.00,0,weatherlink.com 1.10,2013-01-17 14:56:00,
2013-01-17 07:11:00,43.6,35.0,30.19,NE,35,0.0,2.0,72,0.00,,,0.00,0,weatherlink.com 1.10,2013-01-17 15:11:00,
2013-01-17 07:26:00,43.8,35.0,30.19,NE,35,0.0,0.0,72,0.00,,,0.00,9,weatherlink.com 1.10,2013-01-17 15:26:00,
2013-01-17 07:41:00,45.0,36.0,30.19,NE,35,0.0,0.0,71,0.00,,,0.00,28,weatherlink.com 1.10,2013-01-17 15:41:00,
2013-01-17 07:56:00,47.2,37.0,30.20,NE,35,0.0,0.0,68,0.00,,,0.00,62,weatherlink.com 1.10,2013-01-17 15:56:00,
2013-01-17 08:12:00,50.5,38.0,30.21,NE,35,0.0,1.0,62,0.00,,,0.00,113,weatherlink.com 1.10,2013-01-17 16:12:00,
2013-01-17 08:27:00,52.8,39.0,30.21,NE,35,0.0,1.0,60,0.00,,,0.00,172,weatherlink.com 1.10,2013-01-17 16:27:00,
2013-01-17 08:42:00,55.9,39.0,30.21,NE,35,0.0,1.0,54,0.00,,,0.00,232,weatherlink.com 1.10,2013-01-17 16:42:00,
2013-01-17 08:57:00,58.5,39.0,30.22,NE,35,0.0,1.0,49,0.00,,,0.00,274,weatherlink.com 1.10,2013-01-17 16:57:00,
2013-01-17 09:12:00,60.9,41.0,30.22,NE,35,0.0,1.0,49,0.00,,,0.00,316,weatherlink.com 1.10,2013-01-17 17:12:00,
2013-01-17 09:27:00,61.5,41.0,30.23,NE,35,0.0,1.0,47,0.00,,,0.00,359,weatherlink.com 1.10,2013-01-17 17:27:00,
2013-01-17 09:57:00,66.7,40.0,30.22,NE,35,1.0,1.0,38,0.00,,,0.00,432,weatherlink.com 1.10,2013-01-17 17:57:00,
2013-01-17 10:12:00,67.0,41.0,30.22,NE,35,0.0,1.0,39,0.00,,,0.00,466,weatherlink.com 1.10,2013-01-17 18:12:00,
2013-01-17 10:27:00,66.9,42.0,30.22,NE,35,0.0,2.0,41,0.00,,,0.00,497,weatherlink.com 1.10,2013-01-17 18:27:00,
2013-01-17 10:42:00,66.9,34.0,30.21,NE,36,0.0,2.0,30,0.00,,,0.00,526,weatherlink.com 1.10,2013-01-17 18:42:00,
2013-01-17 10:57:00,66.1,34.0,30.21,NE,35,0.0,1.0,31,0.00,,,0.00,538,weatherlink.com 1.10,2013-01-17 18:57:00,
2013-01-17 11:12:00,68.3,35.0,30.20,NE,35,1.0,2.0,29,0.00,,,0.00,561,weatherlink.com 1.10,2013-01-17 19:12:00,
2013-01-17 11:27:00,68.5,36.0,30.19,NE,35,1.0,2.0,30,0.00,,,0.00,578,weatherlink.com 1.10,2013-01-17 19:27:00,
2013-01-17 11:42:00,68.6,34.0,30.18,NE,36,0.0,2.0,28,0.00,,,0.00,592,weatherlink.com 1.10,2013-01-17 19:42:00,
2013-01-17 11:57:00,68.0,37.0,30.18,NE,36,1.0,1.0,32,0.00,,,0.00,594,weatherlink.com 1.10,2013-01-17 19:57:00,
2013-01-17 12:13:00,67.7,45.0,30.17,NE,36,0.0,1.0,44,0.00,,,0.00,601,weatherlink.com 1.10,2013-01-17 20:13:00,
2013-01-17 12:28:00,65.9,43.0,30.17,NE,36,0.0,1.0,44,0.00,,,0.00,587,weatherlink.com 1.10,2013-01-17 20:28:00,
2013-01-17 12:43:00,66.0,49.0,30.16,NE,36,0.0,2.0,55,0.00,,,0.00,578,weatherlink.com 1.10,2013-01-17 20:43:00,
2013-01-17 12:58:00,64.8,51.0,30.16,ESE,106,0.0,2.0,61,0.00,,,0.00,585,weatherlink.com 1.10,2013-01-17 20:58:00,
2013-01-17 13:13:00,63.9,50.0,30.16,ESE,117,0.0,2.0,62,0.00,,,0.00,582,weatherlink.com 1.10,2013-01-17 21:13:00,
2013-01-17 13:28:00,63.8,50.0,30.16,ESE,117,0.0,2.0,61,0.00,,,0.00,570,weatherlink.com 1.10,2013-01-17 21:28:00,
2013-01-17 13:43:00,62.9,47.0,30.16,ESE,117,0.0,2.0,56,0.00,,,0.00,540,weatherlink.com 1.10,2013-01-17 21:43:00,
2013-01-17 13:58:00,63.6,43.0,30.15,ESE,117,2.0,3.0,47,0.00,,,0.00,522,weatherlink.com 1.10,2013-01-17 21:58:00,
2013-01-17 14:13:00,64.0,43.0,30.15,ESE,117,1.0,3.0,47,0.00,,,0.00,496,weatherlink.com 1.10,2013-01-17 22:13:00,
2013-01-17 14:28:00,66.5,47.0,30.15,ESE,117,0.0,3.0,50,0.00,,,0.00,455,weatherlink.com 1.10,2013-01-17 22:28:00,
2013-01-17 14:43:00,68.8,46.0,30.14,ESE,117,0.0,3.0,45,0.00,,,0.00,425,weatherlink.com 1.10,2013-01-17 22:43:00,
2013-01-17 14:58:00,71.8,45.0,30.14,ESE,117,1.0,3.0,39,0.00,,,0.00,394,weatherlink.com 1.10,2013-01-17 22:58:00,
2013-01-17 15:13:00,74.1,48.0,30.14,ESE,117,0.0,2.0,39,0.00,,,0.00,359,weatherlink.com 1.10,2013-01-17 23:13:00,
2013-01-17 15:28:00,70.0,48.0,30.14,ESE,120,3.0,4.0,46,0.00,,,0.00,315,weatherlink.com 1.10,2013-01-17 23:28:00,
2013-01-17 15:43:00,67.0,46.0,30.14,ESE,120,1.0,2.0,47,0.00,,,0.00,250,weatherlink.com 1.10,2013-01-17 23:43:00,
2013-01-17 15:58:00,66.3,45.0,30.14,ESE,120,2.0,2.0,47,0.00,,,0.00,213,weatherlink.com 1.10,2013-01-17 23:58:00,
2013-01-17 16:13:00,67.0,46.0,30.14,ESE,120,0.0,2.0,47,0.00,,,0.00,155,weatherlink.com 1.10,2013-01-18 00:13:00,
2013-01-17 16:28:00,68.8,46.0,30.14,ESE,120,0.0,1.0,44,0.00,,,0.00,104,weatherlink.com 1.10,2013-01-18 00:28:00,
2013-01-17 16:43:00,71.0,47.0,30.14,South,178,4.0,4.0,42,0.00,,,0.00,60,weatherlink.com 1.10,2013-01-18 00:43:00,
2013-01-17 16:58:00,68.4,47.0,30.14,South,186,1.0,2.0,47,0.00,,,0.00,26,weatherlink.com 1.10,2013-01-18 00:58:00,
2013-01-17 17:13:00,65.6,46.0,30.15,South,186,0.0,1.0,50,0.00,,,0.00,7,weatherlink.com 1.10,2013-01-18 01:13:00,
2013-01-17 17:28:00,62.4,45.0,30.15,South,186,2.0,3.0,54,0.00,,,0.00,0,weatherlink.com 1.10,2013-01-18 01:28:00,
2013-01-17 17:43:00,59.7,44.0,30.15,South,186,0.0,1.0,57,0.00,,,0.00,0,weatherlink.com 1.10,2013-01-18 01:43:00,
2013-01-17 17:58:00,57.5,44.0,30.16,South,186,0.0,1.0,60,0.00,,,0.00,0,weatherlink.com 1.10,2013-01-18 01:58:00,
2013-01-17 18:13:00,55.6,43.0,30.16,South,186,0.0,1.0,63,0.00,,,0.00,0,weatherlink.com 1.10,2013-01-18 02:13:00,
2013-01-17 18:28:00,54.3,43.0,30.16,South,186,1.0,1.0,65,0.00,,,0.00,0,weatherlink.com 1.10,2013-01-18 02:28:00,
2013-01-17 18:43:00,53.2,43.0,30.16,South,186,0.0,0.0,69,0.00,,,0.00,0,weatherlink.com 1.10,2013-01-18 02:43:00,
2013-01-17 18:58:00,52.5,44.0,30.16,South,186,0.0,1.0,72,0.00,,,0.00,0,weatherlink.com 1.10,2013-01-18 02:58:00,
2013-01-17 19:13:00,51.7,42.0,30.16,South,186,0.0,3.0,70,0.00,,,0.00,0,weatherlink.com 1.10,2013-01-18 03:13:00,
2013-01-17 19:28:00,51.2,40.0,30.15,South,186,2.0,3.0,65,0.00,,,0.00,0,weatherlink.com 1.10,2013-01-18 03:28:00,
2013-01-17 19:43:00,51.1,40.0,30.15,South,186,0.0,1.0,65,0.00,,,0.00,0,weatherlink.com 1.10,2013-01-18 03:43:00,
2013-01-17 19:58:00,51.5,41.0,30.16,South,186,0.0,3.0,68,0.00,,,0.00,0,weatherlink.com 1.10,2013-01-18 03:58:00,
2013-01-17 20:13:00,51.7,43.0,30.16,South,186,0.0,3.0,72,0.00,,,0.00,0,weatherlink.com 1.10,2013-01-18 04:13:00,
2013-01-17 20:28:00,51.8,43.0,30.16,South,186,0.0,2.0,71,0.00,,,0.00,0,weatherlink.com 1.10,2013-01-18 04:28:00,
2013-01-17 20:43:00,51.5,42.0,30.16,South,178,2.0,4.0,69,0.00,,,0.00,0,weatherlink.com 1.10,2013-01-18 04:43:00,
2013-01-17 20:58:00,52.7,40.0,30.16,SE,136,2.0,3.0,63,0.00,,,0.00,0,weatherlink.com 1.10,2013-01-18 04:58:00,
2013-01-17 21:13:00,52.6,39.0,30.16,SE,136,0.0,2.0,61,0.00,,,0.00,0,weatherlink.com 1.10,2013-01-18 05:13:00,
2013-01-17 21:28:00,52.1,40.0,30.16,SE,136,0.0,1.0,63,0.00,,,0.00,0,weatherlink.com 1.10,2013-01-18 05:28:00,
2013-01-17 21:43:00,50.8,39.0,30.16,SE,136,0.0,2.0,64,0.00,,,0.00,0,weatherlink.com 1.10,2013-01-18 05:43:00,
2013-01-17 21:58:00,50.1,40.0,30.16,SE,136,0.0,0.0,69,0.00,,,0.00,0,weatherlink.com 1.10,2013-01-18 05:58:00,
2013-01-17 22:13:00,49.3,39.0,30.16,SE,136,0.0,2.0,67,0.00,,,0.00,0,weatherlink.com 1.10,2013-01-18 06:13:00,
2013-01-17 22:28:00,48.8,39.0,30.16,SE,136,0.0,0.0,69,0.00,,,0.00,0,weatherlink.com 1.10,2013-01-18 06:28:00,
2013-01-17 22:43:00,48.4,39.0,30.16,SE,136,1.0,3.0,71,0.00,,,0.00,0,weatherlink.com 1.10,2013-01-18 06:43:00,
2013-01-17 22:58:00,49.1,39.0,30.17,SE,136,0.0,3.0,69,0.00,,,0.00,0,weatherlink.com 1.10,2013-01-18 06:58:00,
2013-01-17 23:13:00,50.7,38.0,30.17,SE,136,1.0,4.0,63,0.00,,,0.00,0,weatherlink.com 1.10,2013-01-18 07:13:00,
2013-01-17 23:28:00,51.2,40.0,30.17,SE,128,3.0,6.0,66,0.00,,,0.00,0,weatherlink.com 1.10,2013-01-18 07:28:00,
2013-01-17 23:43:00,51.6,40.0,30.17,SE,127,2.0,5.0,66,0.00,,,0.00,0,weatherlink.com 1.10,2013-01-18 07:43:00,
2013-01-17 23:58:00,51.8,40.0,30.17,SE,128,0.0,5.0,65,0.00,,,0.00,0,weatherlink.com 1.10,2013-01-18 07:58:00,